WB7TUJ Weather Reports


Display with metric or nautical units.
time (UTC)temp
F
wind
direction
speed
MPH
gust
MPH
rain 1hr
in
rain 24hr
in
rain mn
in
humidity
%
barometer
mb
20260906150124 87 289 0.0 0.0 0.00 0.87 0.00 47 967.3
20260906144521 86 288 0.0 0.0 0.00 0.87 0.00 47 967.3
20260906143020 86 288 0.0 0.0 0.00 0.87 0.00 46 967.2
20260906141521 87 289 0.0 0.0 0.00 0.87 0.00 46 967.0
20260906140033 85 288 0.0 0.0 0.00 0.87 0.00 48 966.7
20260906134517 84 288 0.0 0.0 0.00 0.87 0.00 48 966.6
20260906133015 82 289 0.0 0.0 0.00 0.87 0.00 50 966.4
20260906131513 82 289 0.0 0.0 0.00 0.87 0.00 50 966.3
20260906130019 82 289 0.0 0.0 0.00 0.87 0.00 49 966.1
20260906124509 83 289 0.0 0.0 0.00 0.87 0.00 49 966.1
20260906123008 83 289 0.0 0.0 0.00 0.87 0.00 48 966.0
20260906121521 83 289 0.0 0.0 0.00 0.87 0.00 47 966.1
20260906120006 83 289 0.0 0.0 0.00 0.87 0.00 47 966.1
20260906114505 83 289 0.0 0.0 0.00 0.87 0.00 46 966.0
20260906113017 84 288 0.0 0.0 0.00 0.87 0.00 47 966.0
20260906111503 84 289 0.0 0.0 0.00 0.87 0.00 46 965.8
20260906110002 84 288 0.0 0.0 0.00 0.87 0.00 46 965.9
20260906104502 84 288 0.0 0.0 0.00 0.87 0.00 45 966.0
20260906103100 85 288 0.0 0.0 0.00 0.87 0.00 44 965.9
20260906101559 85 288 0.0 0.0 0.00 0.87 0.00 44 965.9
20260906100059 84 289 0.0 0.0 0.00 0.87 0.00 45 965.9
20260906094558 85 289 0.0 0.0 0.00 0.87 0.00 45 965.7
20260906093056 85 289 0.0 0.0 0.00 0.87 0.00 45 965.8
20260906091553 86 289 0.0 0.0 0.00 0.87 0.00 44 965.7
20260906090058 86 288 0.0 0.0 0.00 0.87 0.00 43 965.8
20260906084549 87 289 0.0 0.0 0.00 0.87 0.00 42 965.9
20260906083049 87 289 0.0 0.0 0.00 0.87 0.00 42 966.0
20260906081550 88 289 0.0 0.0 0.00 0.87 0.00 41 966.1
20260906080045 88 289 0.0 0.0 0.00 0.87 0.00 41 966.1
20260906074602 87 289 0.0 0.0 0.00 0.87 0.00 41 966.1
20260906073040 88 289 0.0 0.0 0.00 0.87 0.00 41 966.2
20260906071539 88 289 0.0 0.0 0.00 0.87 0.00 41 966.3
20260906070036 89 289 0.0 0.0 0.00 0.87 0.00 40 966.3
20260906064536 89 289 0.0 0.0 0.00 0.87 0.87 39 966.4
20260906063036 89 289 0.0 0.0 0.00 0.87 0.87 39 966.4
20260906061534 90 288 0.0 0.0 0.00 0.87 0.87 38 966.4
20260906060036 90 288 0.0 0.0 0.00 0.87 0.87 38 966.4
20260906054536 91 289 0.0 0.0 0.00 0.87 0.87 37 966.4
20260906053036 91 289 0.0 0.0 0.00 0.87 0.87 37 966.4
20260906051533 91 289 0.0 0.0 0.00 0.87 0.87 36 966.4
20260906050044 91 288 0.0 0.0 0.00 0.87 0.87 36 966.5
20260906044537 92 289 0.0 0.0 0.00 0.87 0.87 36 966.5
20260906043032 92 288 0.0 0.0 0.00 0.87 0.87 36 966.5
20260906041535 92 288 0.0 0.0 0.00 0.87 0.87 35 966.5
20260906040033 93 289 0.0 0.0 0.00 0.87 0.87 34 966.5
20260906034531 93 288 0.0 0.0 0.00 0.88 0.87 34 966.4
20260906033041 94 289 0.0 0.0 0.00 0.88 0.87 33 966.2
20260906031531 94 289 0.0 9.0 0.00 0.88 0.87 33 966.1
20260906030030 95 289 0.0 0.0 0.00 0.88 0.87 32 966.1
20260906024529 95 288 0.0 8.0 0.00 0.88 0.87 32 965.9
20260906023028 96 295 2.0 10.0 0.00 0.88 0.87 31 965.7
20260906021528 96 296 0.0 11.0 0.02 0.88 0.87 30 965.6
20260906020028 96 291 0.0 9.0 0.07 0.88 0.87 30 965.6
20260906014531 97 269 3.0 8.0 0.07 0.88 0.87 30 965.7
20260906013027 97 292 2.0 9.0 0.12 0.88 0.87 30 965.7
20260906011534 97 291 5.0 11.0 0.20 0.86 0.85 30 965.8
20260906010030 98 287 2.0 8.0 0.17 0.81 0.80 29 965.8
20260906004525 98 300 7.0 13.0 0.27 0.81 0.80 29 965.9
20260906003025 99 269 7.0 16.0 0.56 0.76 0.75 29 965.8
20260906001525 99 300 1.0 11.0 0.53 0.66 0.65 30 965.7
20260906000024 100 282 0.0 10.0 0.51 0.64 0.63 30 965.6
20260905234523 99 296 7.0 15.0 0.41 0.55 0.53 30 965.7
20260905233022 101 306 6.0 14.0 0.10 0.21 0.19 30 965.6
20260905231520 101 291 1.0 10.0 0.03 0.14 0.12 31 965.6
20260905230020 99 279 0.0 9.0 0.06 0.14 0.12 32 965.7
20260905224530 100 304 2.0 12.0 0.06 0.22 0.11 32 965.7
20260905223018 100 292 0.0 9.0 0.04 0.20 0.09 33 965.8
20260905221518 99 277 4.0 16.0 0.05 0.20 0.09 33 965.9
20260905220015 100 223 2.0 11.0 0.04 0.17 0.06 33 966.2
20260905214513 100 239 0.0 7.0 0.03 0.47 0.05 32 966.3
20260905213010 100 239 0.0 10.0 0.03 0.47 0.05 33 966.5
20260905211509 100 234 3.0 10.0 0.03 0.46 0.04 33 966.8
20260905210008 100 194 0.0 3.0 0.01 0.73 0.02 34 966.9
20260905204507 98 193 0.0 4.0 0.01 0.73 0.02 34 967.1
20260905203003 99 192 2.0 12.0 0.00 0.72 0.01 34 967.4
20260905201506 98 180 1.0 6.0 0.00 0.72 0.01 34 967.7
20260905200002 98 167 0.0 7.0 0.00 0.96 0.01 34 967.8
20260905194600 98 167 2.0 8.0 0.00 0.96 0.01 35 967.9
20260905193057 97 167 0.0 9.0 0.00 0.96 0.01 34 968.2
20260905191556 96 167 4.0 9.0 0.00 0.96 0.01 34 968.3
20260905190056 97 134 0.0 0.0 0.01 0.96 0.01 33 968.5
20260905184600 98 113 1.0 6.0 0.01 1.11 0.01 33 968.7
20260905183056 96 104 0.0 0.0 0.01 1.11 0.01 34 968.9
20260905181604 96 102 0.0 0.0 0.01 1.11 0.01 34 969.0
20260905180050 96 84 0.0 0.0 0.00 1.10 0.00 35 969.1
20260905174553 95 163 0.0 4.0 0.00 1.41 0.00 36 969.1
20260905173048 96 279 0.0 0.0 0.00 1.41 0.00 35 969.1
20260905171546 95 71 0.0 0.0 0.00 1.41 0.00 36 969.2
20260905170043 93 71 0.0 0.0 0.00 1.41 0.00 38 969.2
20260905164542 93 68 0.0 0.0 0.00 1.67 0.00 37 969.1
20260905163040 93 68 0.0 0.0 0.00 1.67 0.00 39 969.1
20260905161539 92 129 0.0 0.0 0.00 1.67 0.00 40 969.1
20260905160106 92 128 0.0 0.0 0.00 1.67 0.00 41 969.3
20260905154534 91 149 0.0 0.0 0.00 1.97 0.00 42 969.0
20260905153033 89 275 0.0 0.0 0.00 1.97 0.00 45 968.9
20260905151535 87 275 0.0 0.0 0.00 1.97 0.00 47 968.8